Powrót do katalogu

ARIANE 1 DEB

AktywnySSO
NORAD 16616·DEBRIS·🇫🇷 France

Wystrzelony Feb 22, 1986 z Guiana Space Centre

Loading…

Następne Przeloty (najbliższe 24 godziny)

TLE

ŚwieżeSource: Space-Track

Epoka: Sep 14, 2026, 14:37 UTC

1 16616U 86019D   26257.60945196  .00000231  00000-0  10285-3 0  9991
2 16616  98.2778 249.4258 0006915 333.5227  98.8433 14.31372954111033

Śledź ARIANE 1 DEB w czasie rzeczywistym z AllMySat

Download on the App Store